Accueil
METAR-TAF:

METAR-TAF

Aéroports :

Aéroport de Nevers-Fourchambault

Nevers, France

latitude: 47-00N, longitude: 003-06E, altitude: 180 m

Observation

Le bulletin a été fait il y a 2 heures et 49 minutes, à 18:00 UTC
Vent calme
Température 1°C
Humidité 93%
Pression 1014 hPa
Visibilité: 2100 m
Quelques nuages à une hauteur de 1900 ft
brume

METAR: LFQG 211800Z AUTO 00000KT 2100 BR FEW019 01/M00 Q1014

Heure: 21:49 (20:49 UTC)


TAF: absent

Observations et prévisions météorologiques de plus de 4000 aéroports (messages METAR et TAF).

Les stations disponibles sont représentées par des disques jaunes et rouges sur la carte.

Passer la souris dessus pour voir le nom de la station.

Cliquer dessus pour voir les observations et prévisions météorologiques.

Pour changer de carte: cliquez sur les boutons verts avec une croix noire pour zoomer, sur le bouton vert avec un tiret pour effectuer un zoom arrière, ou sur les flèches vertes pour les cartes adjacentes.


METAR-TAF: